Regional Weather Roundup
Issued by NWS

Home | Current Version | Previous Version | Text Only | Print | Product List | Glossary Off
Versions: 1 2 3 4 5 6 7 8 9 10 11 12 13 14 15 16 17 18 19 20 21 22 23 24 25 26 27 28 29 30 31 32 33 34 35 36 37 38 39 40 41 42 43 44 45 46 47 48 49 50

000
ASUS43 KLSX 100007
RWRMO

WEATHER SUMMARY FOR MISSOURI
NATIONAL WEATHER SERVICE SPRINGFIELD MO
600 PM CST FRI DEC 09 2016

NOTE: "FAIR" INDICATES FEW OR NO CLOUDS BELOW 12,000 FEET WITH NO
       SIGNIFICANT WEATHER AND/OR OBSTRUCTIONS TO VISIBILITY.
       CURRENT SKY AND/OR WEATHER CONDITIONS ARE NOT AVAILABLE FOR
       CHILLICOTHE AND FARMINGTON.

MOZ001>031-035>038-043-044-053-054-100100-
...NORTHERN AND WESTERN MISSOURI...

CITY           SKY/WX    TMP DP  RH WIND       PRES   REMARKS
KANSAS CTY INT CLOUDY    27  10  49 S6        30.52S WCI  20
6HR MIN TEMP:  22; 6HR MAX TEMP:  28;

KANSAS C DTWN  CLOUDY    28  11  48 S6        30.55R WCI  22
6HR MIN TEMP:  24; 6HR MAX TEMP:  30;

LEE`S SUMMIT   CLOUDY    26  10  50 S7        30.54S WCI  18
6HR MIN TEMP:  23; 6HR MAX TEMP:  28; 6HR PCP: TRACE;

ST JOSEPH      CLOUDY    26  11  52 SE6       30.53F WCI  19
6HR MIN TEMP:  21; 6HR MAX TEMP:  26;

CHILLICOTHE      N/A     26   6  42 CALM      30.58R
6HR MIN TEMP:  22; 6HR MAX TEMP:  27; 6HR PCP:  0.01;

KIRKSVILLE     CLOUDY    25  11  55 CALM      30.55S
6HR MIN TEMP:  23; 6HR MAX TEMP:  27;


$$
MOZ066>068-077>081-088>096-101>105-100100-
...SOUTHWEST MISSOURI...

CITY           SKY/WX    TMP DP  RH WIND       PRES   REMARKS
SPRINGFIELD    CLOUDY    31  11  43 SE3       30.49S
6HR MIN TEMP:  29; 6HR MAX TEMP:  33;

JOPLIN         CLOUDY    31  14  49 CALM      30.51S
6HR MIN TEMP:  28; 6HR MAX TEMP:  32;

BRANSON        CLOUDY    28  14  54 SE5       30.51S WCI  23

$$
MOZ032>034-039>042-045>050-055>058-069>072-100100-
...CENTRAL MISSOURI...

CITY           SKY/WX    TMP DP  RH WIND       PRES   REMARKS
COLUMBIA       CLOUDY    24  10  55 N5        30.55F WCI  18
6HR MIN TEMP:  24; 6HR MAX TEMP:  29;

JEFFERSON CITY MOCLDY    26  11  52 CALM      30.58S
6HR MIN TEMP:  24; 6HR MAX TEMP:  29;

ROLLA          CLEAR     21   9  59 CALM      30.52R
6HR MIN TEMP:  21; 6HR MAX TEMP:  30;

SEDALIA        CLOUDY    27   9  46 NE3       30.57R
6HR MIN TEMP:  23; 6HR MAX TEMP:  29;

WHITEMAN AFB   CLOUDY    26  13  59 CALM      30.54S
WARRENSBURG    CLOUDY    28  12  50 CALM      30.56S
OSAGE BEACH    CLEAR     26   9  48 N3        30.55R

$$
MOZ051-052-059>065-100100-
...EAST CENTRAL MISSOURI...

CITY           SKY/WX    TMP DP  RH WIND       PRES   REMARKS
ST LOUIS INTL  PTCLDY    26  12  55 CALM      30.57F
6HR MIN TEMP:  24; 6HR MAX TEMP:  31;

SPIRIT OF STL  CLEAR     23  13  65 CALM      30.58S
6HR MIN TEMP:  22; 6HR MAX TEMP:  32;

ST CHARLES     CLEAR     24  15  68 N3        30.58F
6HR MIN TEMP:  23; 6HR MAX TEMP:  28;


$$
MOZ072>076-082>087-097>100-106>115-100100-
...SOUTH CENTRAL AND SOUTHEAST MISSOURI...

CITY           SKY/WX    TMP DP  RH WIND       PRES   REMARKS
CAPE GIRARDEAU CLEAR     28  19  69 CALM      30.57S
6HR MIN TEMP:  28; 6HR MAX TEMP:  32;

FARMINGTON     CLEAR     25  11  55 N5        30.54S WCI  19
6HR MIN TEMP:  25; 6HR MAX TEMP:  31;

POPLAR BLUFF   CLEAR     28  17  63 CALM      30.58S
6HR MIN TEMP:  27; 6HR MAX TEMP:  34;

WEST PLAINS    CLEAR     25  13  60 CALM      30.51F
6HR MIN TEMP:  24; 6HR MAX TEMP:  34;


$$



USA.gov is the U.S. government's official web portal to all federal, state and local government web resources and services.